This demonstration page uses our WeatherBlox Daily Observations layout. Learn more.

Left ArrowRight Arrow

44.89941, -97.11507

Hourly Observations for March 12, 2017

Temp ( °F °C ) Dew Point ( °F °C ) Humidity (%) Winds ( mph kmh ) Pressure ( in mb ) Visibility ( mi km ) Precip ( " mm )
12:48 am 00:48 Cloudy 12 -11 0 -18 57 57 E 7 11 30.59 1036 10 16 0.00 0.00
12:53 am 00:53 Cloudy 13 -10.6 -1 -18.3 54 54 E 7 11 30.52 1033 10 16 0.00 0.00
1:21 am 01:21 Cloudy 12 -11.1 0 -17.8 58 58 E 6 9 30.56 1035 10 16 0.00 0.00
1:53 am 01:53 Cloudy 12 -11.1 -1 -18.3 56 56 E 6 9 30.50 1033 10 16 0.00 0.00
3:02 am 03:02 Mostly Cloudy 12 -11.1 -1 -18.3 56 56 E 6 9 30.56 1035 10 16 0.00 0.00
3:26 am 03:26 Mostly Cloudy 12 -11.1 -1 -18.3 56 56 E 7 11 30.56 1035 10 16 0.00 0.00
3:43 am 03:43 Partly Cloudy 11 -11.7 -2 -18.9 55 55 ESE 6 9 30.56 1035 10 16 0.00 0.00
3:53 am 03:53 Partly Cloudy 11 -11.7 -2 -18.9 55 55 ESE 6 9 30.49 1033 10 16 0.00 0.00
4:53 am 04:53 Cloudy 11 -11.7 -1 -18.3 58 58 E 8 13 30.46 1032 10 16 0.00 0.00
5:53 am 05:53 Cloudy 12 -11.1 -2 -18.9 53 53 E 9 15 30.42 1030 10 16 0.00 0.00
6:53 am 06:53 Cloudy 13 -10.6 -2 -18.9 51 51 ESE 9 15 30.40 1029 10 16 0.00 0.00
7:21 am 07:21 Cloudy with Light Snow 13 -10.6 -1 -18.3 54 54 SE 10 17 30.45 1031 6 10 0.00 0.03
7:34 am 07:34 Cloudy with Light Snow 12 -11.1 2 -16.7 64 64 ESE 10 17 30.45 1031 2 3 0.00 0.03
7:45 am 07:45 Cloudy with Light Snow 11 -11.7 4 -15.6 73 73 ESE 12 19 30.45 1031 2 2 0.00 0.03
7:53 am 07:53 Cloudy with Light Snow 11 -11.7 5 -15 77 77 ESE 13 20 30.36 1028 1 2 0.00 0.03
8:05 am 08:05 Mostly Cloudy with Light Snow 11 -11.7 6 -14.4 81 81 ESE 9 15 30.42 1030 1 1 0.00 0.03
8:53 am 08:53 Mostly Cloudy with Snow 11 -11.7 7 -13.9 84 84 SE 14 22 30.32 1027 0 0 0.01 0.25
9:09 am 09:09 Mostly Cloudy with Snow 11 -11.7 8 -13.3 88 88 SE 12 19 30.39 1029 0 0 0.00 0.03
9:53 am 09:53 Mostly Cloudy with Snow 12 -11.1 8 -13.3 84 84 SE 14 22 30.28 1025 0 0 0.01 0.25
10:53 am 10:53 Mostly Cloudy with Heavy Snow 13 -10.6 9 -12.8 84 84 SE 15 24 30.23 1024 5 8 0.02 0.51
11:07 am 11:07 Mostly Cloudy with Heavy Snow 13 -10.6 9 -12.8 84 84 SE 17 28 30.27 1025 5 8 0.02 0.51
11:53 am 11:53 Mostly Cloudy with Snow 13 -10.6 10 -12.2 88 88 ESE 13 20 30.23 1024 5 8 0.07 1.78
12:04 pm 12:04 Mostly Cloudy with Snow 13 -10.6 10 -12.2 88 88 ESE 17 28 30.27 1025 0 0 0.00 0.03
12:31 pm 12:31 Mostly Cloudy with Snow 14 -10 10 -12.2 84 84 ESE 14 22 30.24 1024 0 0 0.02 0.51
12:51 pm 12:51 Mostly Cloudy with Snow 14 -10 10 -12 85 85 ESE 13 20 30.27 1025 0 0 0.03 0.76
12:53 pm 12:53 Mostly Cloudy with Snow 14 -10 10 -12.2 84 84 ESE 13 20 30.21 1023 0 0 0.03 0.76
1:06 pm 13:06 Mostly Cloudy with Light Snow 14 -10 10 -12.2 84 84 E 12 19 30.27 1025 1 1 0.00 0.03
1:53 pm 13:53 Cloudy with Light Snow 14 -10 10 -12.2 84 84 E 16 26 30.21 1023 1 1 0.02 0.51
2:16 pm 14:16 Mostly Cloudy with Snow 14 -10 10 -12.2 84 84 E 17 28 30.24 1024 0 0 0.01 0.25
2:53 pm 14:53 Mostly Cloudy with Snow 14 -10 10 -12.2 84 84 E 15 24 30.19 1022 0 0 0.02 0.51
3:03 pm 15:03 Mostly Cloudy with Snow 15 -9.4 10 -12.2 80 80 E 20 31 30.24 1024 1 1 0.00 0.03
3:12 pm 15:12 Cloudy with Snow 15 -9.4 10 -12.2 80 80 E 18 30 30.24 1024 1 1 0.00 0.03
3:37 pm 15:37 Mostly Cloudy with Snow 15 -9.4 10 -12.2 80 80 E 14 22 30.24 1024 1 1 0.01 0.25
3:53 pm 15:53 Mostly Cloudy with Snow 15 -9.4 10 -12.2 80 80 E 18 30 30.20 1023 1 1 0.01 0.25
4:21 pm 16:21 Cloudy with Light Snow 15 -9.4 10 -12.2 80 80 E 18 30 30.24 1024 1 1 0.00 0.03
4:29 pm 16:29 Windy with Snow Likely 15 -9.4 10 -12.2 80 80 E 20 31 30.24 1024 2 2 0.00 0.03
4:42 pm 16:42 Cloudy with Light Snow 15 -9.4 10 -12.2 80 80 E 18 30 30.24 1024 1 2 0.00 0.03
4:53 pm 16:53 Cloudy with Light Snow 15 -9.4 10 -12.2 80 80 E 18 30 30.21 1023 1 2 0.00 0.03
5:11 pm 17:11 Windy with Snow Likely 15 -9.4 10 -12.2 80 80 ENE 21 33 30.27 1025 1 1 0.00 0.03
5:35 pm 17:35 Mostly Cloudy with Snow 15 -9.4 10 -12.2 80 80 E 21 33 30.24 1024 1 1 0.01 0.25
5:53 pm 17:53 Mostly Cloudy with Snow 15 -9.4 10 -12.2 80 80 ENE 17 28 30.22 1023 1 1 0.01 0.25
6:06 pm 18:06 Mostly Cloudy with Light Snow 14 -10 10 -12.2 84 84 ENE 17 28 30.27 1025 1 1 0.00 0.03
6:25 pm 18:25 Cloudy with Light Snow 14 -10 10 -12.2 84 84 ENE 18 30 30.27 1025 1 2 0.00 0.03
6:40 pm 18:40 Cloudy with Light Snow 14 -10 10 -12.2 84 84 ENE 16 26 30.27 1025 2 3 0.00 0.03
6:53 pm 18:53 Windy with Snow Likely 14 -10 9 -12.8 80 80 ENE 22 35 30.24 1024 2 3 0.00 0.03
7:02 pm 19:02 Windy with Snow Likely 14 -10 9 -12.8 80 80 ENE 24 39 30.30 1026 3 4 0.00 0.03
7:13 pm 19:13 Windy with Snow Likely 14 -10 9 -12.8 80 80 ENE 22 35 30.30 1026 3 5 0.00 0.03
7:53 pm 19:53 Windy with Snow Likely 14 -10 9 -12.8 80 80 ENE 22 35 30.27 1025 4 6 0.00 0.03
8:36 pm 20:36 Windy with Snow Likely 14 -10 10 -12.2 84 84 ENE 23 37 30.36 1028 3 4 0.00 0.03
8:53 pm 20:53 Cloudy with Light Snow 14 -10 10 -12.2 84 84 ENE 16 26 30.31 1026 3 5 0.00 0.03
9:27 pm 21:27 Windy with Snow Likely 14 -10 10 -12.2 84 84 NE 20 31 30.36 1028 2 3 0.00 0.03
9:38 pm 21:38 Cloudy with Light Snow 14 -10 10 -12.2 84 84 NE 18 30 30.39 1029 2 3 0.00 0.03
9:53 pm 21:53 Cloudy with Light Snow 13 -10.6 9 -12.8 84 84 NE 17 28 30.34 1027 3 4 0.00 0.03
10:05 pm 22:05 Windy with Snow Likely 13 -10.6 9 -12.8 84 84 NE 20 31 30.39 1029 3 4 0.00 0.03
10:13 pm 22:13 Windy with Snow Likely 13 -10.6 9 -12.8 84 84 NE 20 31 30.39 1029 2 3 0.00 0.03
10:53 pm 22:53 Windy with Snow Likely 13 -10.6 9 -12.8 84 84 NE 21 33 30.37 1028 3 5 0.00 0.03
11:01 pm 23:01 Windy with Snow Likely 13 -10.6 9 -12.8 84 84 NE 20 31 30.45 1031 3 5 0.00 0.03
11:13 pm 23:13 Windy with Snow Likely 13 -10.6 8 -13.3 81 81 NE 21 33 30.45 1031 4 6 0.00 0.03
11:27 pm 23:27 Windy with Snow Likely 13 -10.6 8 -13.3 81 81 NE 21 33 30.45 1031 4 6 0.00 0.03
11:36 pm 23:36 Windy with Snow Likely 12 -11.1 8 -13.3 84 84 NE 21 33 30.45 1031 4 6 0.00 0.03
11:44 pm 23:44 Cloudy with Light Snow 12 -11.1 8 -13.3 84 84 NNE 18 30 30.48 1032 4 6 0.00 0.03
11:53 pm 23:53 Cloudy with Light Snow 12 -11.1 8 -13.3 84 84 NE 17 28 30.39 1029 3 5 0.00 0.03

Powered by AerisWeather